This is the latest recevied weather packets stored in our database for station/object F4MZI-13. If no packets are shown the sender has not sent any weather packets the latest 10 day(s).
| Time | Temp. | Humidity | Pressure | Rain* | Wind** | Luminosity | Snow |
|---|---|---|---|---|---|---|---|
| 1777754083 | 14.44° C | 70% | 1013 hPa | 0 mm | - | - | - |
| 1777753482 | 15° C | 70% | 1013 hPa | 0 mm | - | - | - |
| 1777752881 | 15° C | 70% | 1013 hPa | 0 mm | - | - | - |
| 1777752281 | 15° C | 70% | 1013 hPa | 0 mm | - | - | - |
| 1777751671 | 15° C | 70% | 1013 hPa | 0 mm | - | - | - |
| 1777751070 | 15.56° C | 70% | 1013 hPa | 0 mm | - | - | - |
| 1777750470 | 15.56° C | 70% | 1013 hPa | 0 mm | - | - | - |
| 1777749870 | 16.11° C | 70% | 1013 hPa | 0 mm | - | - | - |
| 1777748668 | 16.11° C | 70% | 1013 hPa | 0 mm | - | - | - |
| 1777748068 | 16.67° C | 70% | 1013 hPa | 0 mm | - | - | - |
| 1777747466 | 16.67° C | 70% | 1013 hPa | 0 mm | - | - | - |
| 1777746866 | 17.22° C | 70% | 1013 hPa | 1.02 mm | - | - | - |
| 1777746266 | 17.22° C | 70% | 1013 hPa | 1.02 mm | - | - | - |
| 1777745666 | 17.22° C | 70% | 1013 hPa | 4.57 mm | - | - | - |
| 1777745061 | 17.78° C | 70% | 1013 hPa | 1.27 mm | - | - | - |
| 1777744460 | 18.33° C | 70% | 1013 hPa | 3.81 mm | - | - | - |
| 1777743860 | 18.89° C | 70% | 1013 hPa | 3.05 mm | - | - | - |
| 1777743250 | 20.56° C | 62% | 1013 hPa | 1.27 mm | - | - | - |
| 1777742641 | 21.11° C | 62% | 1013 hPa | 0.51 mm | - | - | - |
| 1777742039 | 21.11° C | 62% | 1013 hPa | 0.51 mm | - | - | - |
| 1777741439 | 21.11° C | 62% | 1013 hPa | 0 mm | - | - | - |
| 1777740839 | 21.67° C | 62% | 1013 hPa | 0 mm | - | - | - |
| 1777740238 | 22.22° C | 62% | 1013 hPa | 0 mm | - | - | - |
| 1777739638 | 22.22° C | 62% | 1014 hPa | 0 mm | - | - | - |
| 1777739037 | 22.22° C | 62% | 1014 hPa | 0 mm | - | - | - |
* Rain latest hour (hover to see other rain measurements)
** Current wind speed in m/s (hover to see current wind gust speed)